Hourly Data Report for September 26, 2018

SHEARWATER RCS
NOVA SCOTIA
Current Station Operator: ECCC - MSC

44°37'47.000" N
63°30'48.000" W
24.00 m
8205092
71264
AAW

Download Data

Hourly Data (September 2018)
Hourly Data Report for September 26, 2018
TIME Temp Definition
°C
Dew Point Definition
°C
Rel Hum Definition
%
Wind Dir Definition
10's deg

Wind Spd Definition
km/h
Visibility Definition
km
Stn Press Definition
kPa
Hmdx Definition


Wind Chill Definition


Weather Definition


00:00 13.8 7.6 66 17 29   102.92     LegendNANA
01:00 14.0 9.1 73 16 27   102.80     LegendNANA
02:00 14.4 9.2 71 16 29   102.68     LegendNANA
03:00 14.1 10.2 77 17 29   102.63     LegendNANA
04:00 15.1 11.4 79 16 29   102.47     LegendNANA
05:00 15.5 11.8 79 17 31   102.39     LegendNANA
06:00 16.3 12.4 78 17 29   102.30     LegendNANA
07:00 16.7 13.8 83 17 32   102.24     LegendNANA
08:00 17.2 14.1 82 18 31   102.20     LegendNANA
09:00 16.6 14.3 86 17 33   102.14     LegendNANA
10:00 17.3 14.9 86 17 32   102.04     LegendNANA
11:00 17.5 15.7 89 18 27   101.97     LegendNANA
12:00 18.0 15.8 87 17 32   101.85     LegendNANA
13:00 17.9 16.5 92 18 24   101.76     LegendNANA
14:00 18.1 16.9 93 19 28   101.71     LegendNANA
15:00 17.8 17.0 95 17 32   101.58     LegendNANA
16:00 18.2 17.5 96 19 28   101.53     LegendNANA
17:00 18.4 17.6 95 19 23   101.50     LegendNANA
18:00 18.7 17.7 94 19 31   101.43     LegendNANA
19:00 18.9 17.9 94 20 32   101.41     LegendNANA
20:00 19.1 18.0 94 19 30   101.38     LegendNANA
21:00 19.4 18.3 94 19 29   101.33     LegendNANA
22:00 19.5 18.3 93 19 28   101.27     LegendNANA
23:00 19.9 18.6 92 20 33   101.25     LegendNANA

Notes on Data Quality.

Legend

  • E = Estimated
  • M = Missing
  • NA = Not Available*
  • [empty] = Indicates an unobserved value
Date modified: